Terminal Aerodrome Forecast
Issued by NWS

Home | Current Version | Previous Version | Text Only | Print | Product List | Glossary On
Versions: 1 2 3 4 5 6 7 8 9 10 11 12 13 14 15 16 17 18 19 20 21 22 23 24 25 26 27
000
FTUS43 KLSX 201200 AAA
TAFUIN
TAF AMD
KUIN 201251Z 2013/2112 15004KT 6SM BR OVC008
     FM201800 15006KT P6SM OVC012
     FM210400 17006KT P6SM OVC020=

USA.gov is the U.S. government's official web portal to all federal, state and local government web resources and services.